Time,TemperatureF,DewpointF,PressureIn,WindDirection,WindDirectionDegrees,WindSpeedMPH,WindSpeedGustMPH,Humidity,HourlyPrecipIn,Conditions,Clouds,dailyrainin,SoftwareType,DateUTC
2013-04-28 00:03:00,51.6,29.7,30.00,WSW,248,2.9,4.4,43,0.00,,,0.00,WUHU216TE923,2013-04-28 07:03:00,
2013-04-28 00:08:00,51.6,29.7,30.00,NNE,23,2.8,2.9,43,0.00,,,0.00,WUHU216TE923,2013-04-28 07:08:00,
2013-04-28 00:13:00,51.6,29.7,30.00,NNE,23,2.8,2.8,43,0.00,,,0.00,WUHU216TE923,2013-04-28 07:13:00,
2013-04-28 00:18:00,51.4,29.5,30.00,South,180,3.5,5.5,43,0.00,,,0.00,WUHU216TE923,2013-04-28 07:18:00,
2013-04-28 00:23:00,51.3,29.4,29.99,SSW,203,4.2,6.3,43,0.00,,,0.00,WUHU216TE923,2013-04-28 07:23:00,
2013-04-28 00:28:00,51.3,28.8,29.99,SW,225,4.5,6.7,42,0.00,,,0.00,WUHU216TE923,2013-04-28 07:28:00,
2013-04-28 00:33:00,51.3,28.8,29.99,SW,225,4.0,6.7,42,0.00,,,0.00,WUHU216TE923,2013-04-28 07:33:00,
2013-04-28 00:38:00,51.1,28.6,29.99,NW,315,3.4,4.3,42,0.00,,,0.00,WUHU216TE923,2013-04-28 07:38:00,
2013-04-28 00:43:00,51.1,28.6,30.00,South,180,3.2,4.3,42,0.00,,,0.00,WUHU216TE923,2013-04-28 07:43:00,
2013-04-28 00:48:00,50.9,28.5,30.00,WSW,248,3.2,3.2,42,0.00,,,0.00,WUHU216TE923,2013-04-28 07:48:00,
2013-04-28 00:53:00,50.9,28.5,30.00,West,270,2.9,3.9,42,0.00,,,0.00,WUHU216TE923,2013-04-28 07:53:00,
2013-04-28 00:58:00,50.7,28.9,30.00,SSW,203,2.7,3.9,43,0.00,,,0.00,WUHU216TE923,2013-04-28 07:58:00,
2013-04-28 01:03:00,50.5,28.7,29.99,South,180,2.5,3.1,43,0.00,,,0.00,WUHU216TE923,2013-04-28 08:03:00,
2013-04-28 01:08:00,50.5,28.7,29.99,SW,225,2.4,8.6,43,0.00,,,0.00,WUHU216TE923,2013-04-28 08:08:00,
2013-04-28 01:13:00,50.4,28.6,29.99,West,270,2.9,8.6,43,0.00,,,0.00,WUHU216TE923,2013-04-28 08:13:00,
2013-04-28 01:18:00,50.4,28.6,29.99,NNE,23,3.0,4.9,43,0.00,,,0.00,WUHU216TE923,2013-04-28 08:18:00,
2013-04-28 01:23:00,50.2,28.4,29.99,SW,225,3.0,3.0,43,0.00,,,0.00,WUHU216TE923,2013-04-28 08:23:00,
2013-04-28 01:28:00,50.2,28.4,29.99,NNE,23,2.6,3.0,43,0.00,,,0.00,WUHU216TE923,2013-04-28 08:28:00,
2013-04-28 01:33:00,50.0,28.2,29.99,ENE,68,2.1,2.6,43,0.00,,,0.00,WUHU216TE923,2013-04-28 08:33:00,
2013-04-28 01:38:00,49.8,28.1,29.99,North,0,2.1,2.6,43,0.00,,,0.00,WUHU216TE923,2013-04-28 08:38:00,
2013-04-28 01:43:00,49.8,28.1,29.99,SW,225,2.2,2.3,43,0.00,,,0.00,WUHU216TE923,2013-04-28 08:43:00,
2013-04-28 01:48:00,49.6,27.9,29.99,NW,315,2.3,2.4,43,0.00,,,0.00,WUHU216TE923,2013-04-28 08:48:00,
2013-04-28 01:53:00,49.3,28.2,29.99,West,270,1.7,2.6,44,0.00,,,0.00,WUHU216TE923,2013-04-28 08:53:00,
2013-04-28 01:58:00,49.3,28.2,29.99,NW,315,1.2,2.6,44,0.00,,,0.00,WUHU216TE923,2013-04-28 08:58:00,
2013-04-28 02:03:00,49.1,28.0,30.00,NNE,23,0.9,2.5,44,0.00,,,0.00,WUHU216TE923,2013-04-28 09:03:00,
2013-04-28 02:08:00,48.9,28.4,30.00,North,0,0.9,1.4,45,0.00,,,0.00,WUHU216TE923,2013-04-28 09:08:00,
2013-04-28 02:13:00,48.7,28.2,30.00,NW,315,0.8,1.4,45,0.00,,,0.00,WUHU216TE923,2013-04-28 09:13:00,
2013-04-28 02:18:00,48.6,28.1,30.00,ENE,68,0.6,0.8,45,0.00,,,0.00,WUHU216TE923,2013-04-28 09:18:00,
2013-04-28 02:23:00,48.2,27.7,29.99,NNW,338,0.5,0.6,45,0.00,,,0.00,WUHU216TE923,2013-04-28 09:23:00,
2013-04-28 02:28:00,47.8,28.5,29.99,WNW,293,0.5,0.5,47,0.00,,,0.00,WUHU216TE923,2013-04-28 09:28:00,
2013-04-28 02:33:00,47.5,28.7,29.99,SW,225,0.4,0.5,48,0.00,,,0.00,WUHU216TE923,2013-04-28 09:33:00,
2013-04-28 02:38:00,47.3,29.0,29.99,WSW,248,0.4,0.4,49,0.00,,,0.00,WUHU216TE923,2013-04-28 09:38:00,
2013-04-28 02:43:00,46.8,28.6,30.00,East,90,0.2,0.4,49,0.00,,,0.00,WUHU216TE923,2013-04-28 09:43:00,
2013-04-28 02:48:00,46.8,28.6,30.00,ENE,68,0.1,1.5,49,0.00,,,0.00,WUHU216TE923,2013-04-28 09:48:00,
2013-04-28 02:53:00,46.8,29.1,30.00,NNW,338,0.1,1.5,50,0.00,,,0.00,WUHU216TE923,2013-04-28 09:53:00,
2013-04-28 02:58:00,46.8,29.1,30.00,SW,225,0.1,0.1,50,0.00,,,0.00,WUHU216TE923,2013-04-28 09:58:00,
2013-04-28 03:03:00,46.4,28.7,30.00,WSW,248,0.1,0.1,50,0.00,,,0.00,WUHU216TE923,2013-04-28 10:03:00,
2013-04-28 03:08:00,46.2,28.5,30.00,SE,135,0.1,0.1,50,0.00,,,0.00,WUHU216TE923,2013-04-28 10:08:00,
2013-04-28 03:13:00,46.2,28.5,30.00,SE,135,0.1,0.1,50,0.00,,,0.00,WUHU216TE923,2013-04-28 10:13:00,
2013-04-28 03:18:00,45.7,29.1,30.00,SW,225,0.0,0.1,52,0.00,,,0.00,WUHU216TE923,2013-04-28 10:18:00,
2013-04-28 03:23:00,45.5,28.9,30.00,SW,225,0.0,0.0,52,0.00,,,0.00,WUHU216TE923,2013-04-28 10:23:00,
2013-04-28 03:28:00,45.3,28.7,30.00,SW,225,0.0,0.0,52,0.00,,,0.00,WUHU216TE923,2013-04-28 10:28:00,
2013-04-28 03:33:00,45.0,28.9,30.00,SSW,203,0.6,1.4,53,0.00,,,0.00,WUHU216TE923,2013-04-28 10:33:00,
2013-04-28 03:38:00,45.0,28.9,30.00,SW,225,0.8,1.4,53,0.00,,,0.00,WUHU216TE923,2013-04-28 10:38:00,
2013-04-28 03:43:00,44.6,28.5,30.01,WSW,248,0.6,0.8,53,0.00,,,0.00,WUHU216TE923,2013-04-28 10:43:00,
2013-04-28 03:48:00,44.4,28.8,30.01,SSW,203,0.5,0.6,54,0.00,,,0.00,WUHU216TE923,2013-04-28 10:48:00,
2013-04-28 03:53:00,44.2,28.6,30.01,WSW,248,0.5,1.5,54,0.00,,,0.00,WUHU216TE923,2013-04-28 10:53:00,
2013-04-28 03:58:00,44.2,28.6,30.01,SW,225,0.7,1.5,54,0.00,,,0.00,WUHU216TE923,2013-04-28 10:58:00,
2013-04-28 04:03:00,44.1,28.5,30.01,SW,225,1.0,1.0,54,0.00,,,0.00,WUHU216TE923,2013-04-28 11:03:00,
2013-04-28 04:08:00,43.9,28.3,30.01,SW,225,1.0,1.5,54,0.00,,,0.00,WUHU216TE923,2013-04-28 11:08:00,
2013-04-28 04:13:00,44.2,28.6,30.01,South,180,1.2,1.6,54,0.00,,,0.00,WUHU216TE923,2013-04-28 11:13:00,
2013-04-28 04:18:00,44.4,28.8,30.01,WSW,248,1.5,5.5,54,0.00,,,0.00,WUHU216TE923,2013-04-28 11:18:00,
2013-04-28 04:23:00,44.4,28.8,30.00,SW,225,2.1,5.5,54,0.00,,,0.00,WUHU216TE923,2013-04-28 11:23:00,
2013-04-28 04:28:00,44.6,29.0,30.00,South,180,2.5,2.5,54,0.00,,,0.00,WUHU216TE923,2013-04-28 11:28:00,
2013-04-28 04:33:00,44.6,29.0,30.00,East,90,2.5,3.9,54,0.00,,,0.00,WUHU216TE923,2013-04-28 11:33:00,
2013-04-28 04:38:00,44.6,29.0,30.00,SSW,203,2.4,3.9,54,0.00,,,0.00,WUHU216TE923,2013-04-28 11:38:00,
2013-04-28 04:43:00,44.6,29.0,30.00,South,180,2.5,2.8,54,0.00,,,0.00,WUHU216TE923,2013-04-28 11:43:00,
2013-04-28 04:48:00,44.8,28.7,30.00,SW,225,2.3,5.0,53,0.00,,,0.00,WUHU216TE923,2013-04-28 11:48:00,
2013-04-28 04:53:00,44.8,28.7,30.00,SSW,203,2.5,5.0,53,0.00,,,0.00,WUHU216TE923,2013-04-28 11:53:00,
2013-04-28 04:58:00,44.8,28.7,30.00,SSW,203,2.9,3.7,53,0.00,,,0.00,WUHU216TE923,2013-04-28 11:58:00,
2013-04-28 05:03:00,44.8,28.7,30.01,SW,225,3.0,3.2,53,0.00,,,0.00,WUHU216TE923,2013-04-28 12:03:00,
2013-04-28 05:08:00,44.8,28.7,30.01,SSW,203,2.5,3.2,53,0.00,,,0.00,WUHU216TE923,2013-04-28 12:08:00,
2013-04-28 05:13:00,44.8,28.7,30.01,SW,225,1.6,2.5,53,0.00,,,0.00,WUHU216TE923,2013-04-28 12:13:00,
2013-04-28 05:18:00,44.8,28.7,30.01,SSW,203,1.3,1.6,53,0.00,,,0.00,WUHU216TE923,2013-04-28 12:18:00,
2013-04-28 05:23:00,44.6,28.0,30.00,SW,225,1.0,2.0,52,0.00,,,0.00,WUHU216TE923,2013-04-28 12:23:00,
2013-04-28 05:28:00,44.4,28.3,30.00,WSW,248,0.9,2.0,53,0.00,,,0.00,WUHU216TE923,2013-04-28 12:28:00,
2013-04-28 05:33:00,44.4,27.9,30.00,South,180,0.7,0.9,52,0.00,,,0.00,WUHU216TE923,2013-04-28 12:33:00,
2013-04-28 05:38:00,44.2,27.7,30.00,SW,225,0.7,1.2,52,0.00,,,0.00,WUHU216TE923,2013-04-28 12:38:00,
2013-04-28 05:43:00,44.1,28.1,30.00,WSW,248,1.1,1.2,53,0.00,,,0.00,WUHU216TE923,2013-04-28 12:43:00,
2013-04-28 05:48:00,43.7,27.7,30.00,West,270,0.9,1.1,53,0.00,,,0.00,WUHU216TE923,2013-04-28 12:48:00,
2013-04-28 05:53:00,43.3,27.3,30.00,SW,225,0.2,0.9,53,0.00,,,0.00,WUHU216TE923,2013-04-28 12:53:00,
2013-04-28 05:58:00,43.2,27.2,30.00,WSW,248,0.1,1.3,53,0.00,,,0.00,WUHU216TE923,2013-04-28 12:58:00,
2013-04-28 06:03:00,43.0,27.5,29.99,WSW,248,0.6,1.3,54,0.00,,,0.00,WUHU216TE923,2013-04-28 13:03:00,
2013-04-28 06:08:00,43.0,28.0,29.99,WSW,248,0.7,1.3,55,0.00,,,0.00,WUHU216TE923,2013-04-28 13:08:00,
2013-04-28 06:13:00,43.0,28.0,29.99,WSW,248,0.7,1.2,55,0.00,,,0.00,WUHU216TE923,2013-04-28 13:13:00,
2013-04-28 06:18:00,43.0,28.0,29.99,NW,315,0.3,1.2,55,0.00,,,0.00,WUHU216TE923,2013-04-28 13:18:00,
2013-04-28 06:23:00,43.2,28.1,30.00,WSW,248,0.2,1.2,55,0.00,,,0.00,WUHU216TE923,2013-04-28 13:23:00,
2013-04-28 06:28:00,43.3,28.2,30.00,West,270,0.3,1.2,55,0.00,,,0.00,WUHU216TE923,2013-04-28 13:28:00,
2013-04-28 06:33:00,43.5,28.4,30.00,NNW,338,0.2,0.3,55,0.00,,,0.00,WUHU216TE923,2013-04-28 13:33:00,
2013-04-28 06:38:00,43.7,28.6,30.00,East,90,0.0,0.2,55,0.00,,,0.00,WUHU216TE923,2013-04-28 13:38:00,
2013-04-28 06:43:00,43.7,28.6,30.01,NW,315,0.0,0.0,55,0.00,,,0.00,WUHU216TE923,2013-04-28 13:43:00,
2013-04-28 06:48:00,43.9,28.8,30.01,ENE,68,0.0,0.0,55,0.00,,,0.00,WUHU216TE923,2013-04-28 13:48:00,
2013-04-28 06:53:00,44.1,29.0,30.01,SW,225,0.0,0.0,55,0.00,,,0.00,WUHU216TE923,2013-04-28 13:53:00,
2013-04-28 06:58:00,44.2,29.1,30.01,SW,225,0.0,0.0,55,0.00,,,0.00,WUHU216TE923,2013-04-28 13:58:00,
2013-04-28 07:03:00,44.4,29.3,30.02,NE,45,0.0,0.0,55,0.00,,,0.00,WUHU216TE923,2013-04-28 14:03:00,
2013-04-28 07:08:00,44.8,29.2,30.02,NW,315,0.0,0.0,54,0.00,,,0.00,WUHU216TE923,2013-04-28 14:08:00,
2013-04-28 07:13:00,45.1,29.5,30.02,South,180,0.0,0.0,54,0.00,,,0.00,WUHU216TE923,2013-04-28 14:13:00,
2013-04-28 07:18:00,45.3,29.2,30.02,NW,315,0.0,0.0,53,0.00,,,0.00,WUHU216TE923,2013-04-28 14:18:00,
2013-04-28 07:23:00,45.9,29.7,30.02,NNE,23,0.0,0.0,53,0.00,,,0.00,WUHU216TE923,2013-04-28 14:23:00,
2013-04-28 07:28:00,46.0,29.8,30.02,SE,135,0.0,0.0,53,0.00,,,0.00,WUHU216TE923,2013-04-28 14:28:00,
2013-04-28 07:33:00,46.6,30.4,30.02,SE,135,0.0,0.0,53,0.00,,,0.00,WUHU216TE923,2013-04-28 14:33:00,
2013-04-28 07:38:00,46.8,30.1,30.02,SE,135,0.1,0.1,52,0.00,,,0.00,WUHU216TE923,2013-04-28 14:38:00,
2013-04-28 07:43:00,47.3,31.0,30.02,ENE,68,0.1,2.6,53,0.00,,,0.00,WUHU216TE923,2013-04-28 14:43:00,
2013-04-28 07:48:00,47.5,31.2,30.02,ESE,113,0.2,2.6,53,0.00,,,0.00,WUHU216TE923,2013-04-28 14:48:00,
2013-04-28 07:53:00,47.8,31.5,30.02,ENE,68,0.7,1.7,53,0.00,,,0.00,WUHU216TE923,2013-04-28 14:53:00,
2013-04-28 07:58:00,48.0,31.7,30.02,East,90,0.8,1.7,53,0.00,,,0.00,WUHU216TE923,2013-04-28 14:58:00,
2013-04-28 08:03:00,48.4,32.1,30.02,ESE,113,0.6,1.5,53,0.00,,,0.00,WUHU216TE923,2013-04-28 15:03:00,
2013-04-28 08:08:00,48.6,32.2,30.02,NNW,338,0.5,1.2,53,0.00,,,0.00,WUHU216TE923,2013-04-28 15:08:00,
2013-04-28 08:13:00,48.7,32.3,30.02,ESE,113,0.8,1.2,53,0.00,,,0.00,WUHU216TE923,2013-04-28 15:13:00,
2013-04-28 08:18:00,49.3,32.9,30.02,ENE,68,1.3,2.3,53,0.00,,,0.00,WUHU216TE923,2013-04-28 15:18:00,
2013-04-28 08:23:00,49.3,32.9,30.02,ENE,68,1.3,2.3,53,0.00,,,0.00,WUHU216TE923,2013-04-28 15:23:00,
2013-04-28 08:28:00,49.3,32.9,30.02,NE,45,1.7,3.4,53,0.00,,,0.00,WUHU216TE923,2013-04-28 15:28:00,
2013-04-28 08:33:00,49.6,33.2,30.02,ENE,68,1.6,3.4,53,0.00,,,0.00,WUHU216TE923,2013-04-28 15:33:00,
2013-04-28 08:38:00,50.0,33.6,30.02,ENE,68,1.3,1.6,53,0.00,,,0.00,WUHU216TE923,2013-04-28 15:38:00,
2013-04-28 08:43:00,50.4,33.9,30.02,SE,135,0.9,3.4,53,0.00,,,0.00,WUHU216TE923,2013-04-28 15:43:00,
2013-04-28 08:48:00,50.4,33.9,30.02,ENE,68,0.8,3.4,53,0.00,,,0.00,WUHU216TE923,2013-04-28 15:48:00,
2013-04-28 08:53:00,50.5,34.0,30.02,ESE,113,1.1,2.6,53,0.00,,,0.00,WUHU216TE923,2013-04-28 15:53:00,
2013-04-28 08:58:00,50.7,34.2,30.02,South,180,1.5,3.3,53,0.00,,,0.00,WUHU216TE923,2013-04-28 15:58:00,
2013-04-28 09:03:00,50.9,34.4,30.02,NE,45,1.3,3.3,53,0.00,,,0.00,WUHU216TE923,2013-04-28 16:03:00,
2013-04-28 09:08:00,50.9,33.9,30.02,NNE,23,1.1,3.1,52,0.00,,,0.00,WUHU216TE923,2013-04-28 16:08:00,
2013-04-28 09:13:00,51.1,34.1,30.02,NNE,23,0.9,1.6,52,0.00,,,0.00,WUHU216TE923,2013-04-28 16:13:00,
2013-04-28 09:18:00,51.3,34.3,30.02,NW,315,0.7,0.9,52,0.00,,,0.00,WUHU216TE923,2013-04-28 16:18:00,
2013-04-28 09:23:00,51.6,34.6,30.03,SSE,158,0.3,0.7,52,0.00,,,0.00,WUHU216TE923,2013-04-28 16:23:00,
2013-04-28 09:28:00,52.0,35.4,30.03,SSE,158,0.2,0.3,53,0.00,,,0.00,WUHU216TE923,2013-04-28 16:28:00,
2013-04-28 09:33:00,52.3,34.7,30.03,East,90,0.7,1.9,51,0.00,,,0.00,WUHU216TE923,2013-04-28 16:33:00,
2013-04-28 09:38:00,52.7,35.1,30.03,NW,315,1.0,3.3,51,0.00,,,0.00,WUHU216TE923,2013-04-28 16:38:00,
2013-04-28 09:43:00,52.7,35.1,30.02,NE,45,2.4,4.6,51,0.00,,,0.00,WUHU216TE923,2013-04-28 16:43:00,
2013-04-28 09:48:00,52.7,35.1,30.02,NNE,23,2.8,4.6,51,0.00,,,0.00,WUHU216TE923,2013-04-28 16:48:00,
2013-04-28 09:53:00,53.1,35.4,30.02,East,90,2.7,2.8,51,0.00,,,0.00,WUHU216TE923,2013-04-28 16:53:00,
2013-04-28 09:58:00,53.2,35.5,30.02,ENE,68,2.1,3.8,51,0.00,,,0.00,WUHU216TE923,2013-04-28 16:58:00,
2013-04-28 10:03:00,53.8,36.1,30.03,East,90,2.2,4.2,51,0.00,,,0.00,WUHU216TE923,2013-04-28 17:03:00,
2013-04-28 10:08:00,54.0,35.2,30.03,ENE,68,2.6,4.2,49,0.00,,,0.00,WUHU216TE923,2013-04-28 17:08:00,
2013-04-28 10:13:00,54.1,35.3,30.03,NNE,23,2.3,2.6,49,0.00,,,0.00,WUHU216TE923,2013-04-28 17:13:00,
2013-04-28 10:18:00,53.8,35.0,30.03,NE,45,2.5,4.0,49,0.00,,,0.00,WUHU216TE923,2013-04-28 17:18:00,
2013-04-28 10:23:00,53.8,35.0,30.03,NE,45,2.5,4.0,49,0.00,,,0.00,WUHU216TE923,2013-04-28 17:23:00,
2013-04-28 10:28:00,54.7,35.3,30.03,East,90,3.3,4.7,48,0.00,,,0.00,WUHU216TE923,2013-04-28 17:28:00,
2013-04-28 10:33:00,54.7,34.8,30.03,NNW,338,3.2,4.7,47,0.00,,,0.00,WUHU216TE923,2013-04-28 17:33:00,
2013-04-28 10:38:00,54.9,35.0,30.03,East,90,2.7,4.8,47,0.00,,,0.00,WUHU216TE923,2013-04-28 17:38:00,
2013-04-28 10:43:00,55.2,34.1,30.03,East,90,2.3,5.0,45,0.00,,,0.00,WUHU216TE923,2013-04-28 17:43:00,
2013-04-28 10:48:00,55.8,34.1,30.03,ENE,68,2.7,5.0,44,0.00,,,0.00,WUHU216TE923,2013-04-28 17:48:00,
2013-04-28 10:53:00,55.6,32.7,30.03,ESE,113,2.7,3.2,42,0.00,,,0.00,WUHU216TE923,2013-04-28 17:53:00,
2013-04-28 10:58:00,56.1,33.2,30.03,NE,45,2.4,3.8,42,0.00,,,0.00,WUHU216TE923,2013-04-28 17:58:00,
2013-04-28 11:03:00,56.1,32.6,30.02,East,90,3.0,6.1,41,0.00,,,0.00,WUHU216TE923,2013-04-28 18:03:00,
2013-04-28 11:08:00,55.9,31.7,30.02,NNE,23,3.7,8.6,40,0.00,,,0.00,WUHU216TE923,2013-04-28 18:08:00,
2013-04-28 11:13:00,56.1,31.9,30.02,NNW,338,4.7,8.6,40,0.00,,,0.00,WUHU216TE923,2013-04-28 18:13:00,
2013-04-28 11:18:00,56.5,32.3,30.02,NW,315,4.5,7.8,40,0.00,,,0.00,WUHU216TE923,2013-04-28 18:18:00,
2013-04-28 11:23:00,56.3,32.1,30.01,NE,45,4.0,6.2,40,0.00,,,0.00,WUHU216TE923,2013-04-28 18:23:00,
2013-04-28 11:28:00,56.5,32.3,30.01,NNE,23,4.0,6.2,40,0.00,,,0.00,WUHU216TE923,2013-04-28 18:28:00,
2013-04-28 11:33:00,56.8,32.6,30.01,NNE,23,4.0,5.5,40,0.00,,,0.00,WUHU216TE923,2013-04-28 18:33:00,
2013-04-28 11:38:00,56.5,31.6,30.01,SW,225,4.1,4.1,39,0.00,,,0.00,WUHU216TE923,2013-04-28 18:38:00,
2013-04-28 11:43:00,56.5,31.6,30.02,East,90,4.0,6.3,39,0.00,,,0.00,WUHU216TE923,2013-04-28 18:43:00,
2013-04-28 11:48:00,56.5,31.0,30.02,NE,45,3.5,6.3,38,0.00,,,0.00,WUHU216TE923,2013-04-28 18:48:00,
2013-04-28 11:53:00,56.1,30.6,30.02,East,90,3.8,5.6,38,0.00,,,0.00,WUHU216TE923,2013-04-28 18:53:00,
2013-04-28 11:58:00,56.1,30.6,30.02,NNE,23,3.4,5.6,38,0.00,,,0.00,WUHU216TE923,2013-04-28 18:58:00,
2013-04-28 12:03:00,56.8,31.3,30.01,ENE,68,3.1,4.8,38,0.00,,,0.00,WUHU216TE923,2013-04-28 19:03:00,
2013-04-28 12:08:00,57.0,31.4,30.01,NE,45,2.5,3.1,38,0.00,,,0.00,WUHU216TE923,2013-04-28 19:08:00,
2013-04-28 12:13:00,57.0,31.4,30.01,NE,45,2.5,2.5,38,0.00,,,0.00,WUHU216TE923,2013-04-28 19:13:00,
2013-04-28 12:18:00,57.6,29.9,30.01,NNE,23,4.1,6.1,35,0.00,,,0.00,WUHU216TE923,2013-04-28 19:18:00,
2013-04-28 12:23:00,57.0,29.4,30.02,South,180,3.9,6.1,35,0.00,,,0.00,WUHU216TE923,2013-04-28 19:23:00,
2013-04-28 12:28:00,57.4,29.7,30.02,NNW,338,4.0,6.6,35,0.00,,,0.00,WUHU216TE923,2013-04-28 19:28:00,
2013-04-28 12:33:00,57.7,30.0,30.02,ENE,68,3.7,6.6,35,0.00,,,0.00,WUHU216TE923,2013-04-28 19:33:00,
2013-04-28 12:38:00,57.7,29.3,30.02,ENE,68,3.6,5.4,34,0.00,,,0.00,WUHU216TE923,2013-04-28 19:38:00,
2013-04-28 12:43:00,57.6,28.5,30.02,WNW,293,4.1,4.1,33,0.00,,,0.00,WUHU216TE923,2013-04-28 19:43:00,
2013-04-28 12:48:00,57.6,28.5,30.02,ENE,68,4.2,4.5,33,0.00,,,0.00,WUHU216TE923,2013-04-28 19:48:00,
2013-04-28 12:53:00,57.7,28.6,30.02,ENE,68,3.7,4.5,33,0.00,,,0.00,WUHU216TE923,2013-04-28 19:53:00,
2013-04-28 12:58:00,58.3,28.3,30.02,NE,45,3.5,5.9,32,0.00,,,0.00,WUHU216TE923,2013-04-28 19:58:00,
2013-04-28 13:03:00,57.9,27.2,30.01,NE,45,3.7,5.9,31,0.00,,,0.00,WUHU216TE923,2013-04-28 20:03:00,
2013-04-28 13:08:00,57.9,27.2,30.01,NE,45,3.9,5.6,31,0.00,,,0.00,WUHU216TE923,2013-04-28 20:08:00,
2013-04-28 13:13:00,58.3,28.3,30.01,ENE,68,3.9,5.6,32,0.00,,,0.00,WUHU216TE923,2013-04-28 20:13:00,
2013-04-28 13:18:00,58.3,28.3,30.01,NNW,338,3.6,3.9,32,0.00,,,0.00,WUHU216TE923,2013-04-28 20:18:00,
2013-04-28 13:23:00,58.3,27.6,30.00,ENE,68,3.3,3.6,31,0.00,,,0.00,WUHU216TE923,2013-04-28 20:23:00,
2013-04-28 13:28:00,58.6,28.6,30.00,NE,45,3.3,4.1,32,0.00,,,0.00,WUHU216TE923,2013-04-28 20:28:00,
2013-04-28 13:33:00,58.1,28.2,30.00,ENE,68,3.7,4.1,32,0.00,,,0.00,WUHU216TE923,2013-04-28 20:33:00,
2013-04-28 13:38:00,58.3,28.3,30.00,ESE,113,4.1,4.4,32,0.00,,,0.00,WUHU216TE923,2013-04-28 20:38:00,
2013-04-28 13:43:00,58.6,29.4,30.00,SE,135,3.2,4.4,33,0.00,,,0.00,WUHU216TE923,2013-04-28 20:43:00,
2013-04-28 13:48:00,58.6,29.4,30.00,NE,45,3.0,3.8,33,0.00,,,0.00,WUHU216TE923,2013-04-28 20:48:00,
2013-04-28 13:53:00,58.3,28.3,30.00,ENE,68,3.2,3.9,32,0.00,,,0.00,WUHU216TE923,2013-04-28 20:53:00,
2013-04-28 13:58:00,58.6,28.6,30.00,NE,45,3.3,7.6,32,0.00,,,0.00,WUHU216TE923,2013-04-28 20:58:00,
2013-04-28 14:03:00,58.8,28.8,29.99,ESE,113,3.5,7.6,32,0.00,,,0.00,WUHU216TE923,2013-04-28 21:03:00,
2013-04-28 14:08:00,58.1,28.2,29.99,SE,135,4.1,4.3,32,0.00,,,0.00,WUHU216TE923,2013-04-28 21:08:00,
2013-04-28 14:13:00,58.5,28.5,29.99,ENE,68,4.1,6.0,32,0.00,,,0.00,WUHU216TE923,2013-04-28 21:13:00,
2013-04-28 14:18:00,58.8,28.8,29.99,ENE,68,4.1,6.4,32,0.00,,,0.00,WUHU216TE923,2013-04-28 21:18:00,
2013-04-28 14:23:00,59.0,28.2,29.99,NE,45,3.7,6.7,31,0.00,,,0.00,WUHU216TE923,2013-04-28 21:23:00,
2013-04-28 14:28:00,59.0,28.2,29.99,SE,135,3.5,6.7,31,0.00,,,0.00,WUHU216TE923,2013-04-28 21:28:00,
2013-04-28 14:33:00,59.4,27.7,29.99,NW,315,3.5,6.1,30,0.00,,,0.00,WUHU216TE923,2013-04-28 21:33:00,
2013-04-28 14:38:00,59.2,27.6,29.99,ENE,68,3.1,4.8,30,0.00,,,0.00,WUHU216TE923,2013-04-28 21:38:00,
2013-04-28 14:43:00,59.5,27.8,29.98,NE,45,3.4,5.6,30,0.00,,,0.00,WUHU216TE923,2013-04-28 21:43:00,
2013-04-28 14:49:00,59.7,28.0,29.98,SE,135,3.2,5.6,30,0.00,,,0.00,WUHU216TE923,2013-04-28 21:49:00,
2013-04-28 14:54:00,59.5,27.8,29.98,ENE,68,3.3,7.8,30,0.00,,,0.00,WUHU216TE923,2013-04-28 21:54:00,
2013-04-28 14:59:00,59.2,27.6,29.98,NW,315,3.5,7.8,30,0.00,,,0.00,WUHU216TE923,2013-04-28 21:59:00,
2013-04-28 15:04:00,59.4,27.7,29.97,SE,135,3.4,3.5,30,0.00,,,0.00,WUHU216TE923,2013-04-28 22:04:00,
2013-04-28 15:09:00,59.5,27.8,29.97,NNE,23,2.8,4.3,30,0.00,,,0.00,WUHU216TE923,2013-04-28 22:09:00,
2013-04-28 15:14:00,59.7,28.0,29.97,ESE,113,3.0,4.3,30,0.00,,,0.00,WUHU216TE923,2013-04-28 22:14:00,
2013-04-28 15:19:00,59.9,28.2,29.97,North,0,2.9,3.0,30,0.00,,,0.00,WUHU216TE923,2013-04-28 22:19:00,
2013-04-28 15:24:00,60.3,28.5,29.97,SE,135,2.6,3.2,30,0.00,,,0.00,WUHU216TE923,2013-04-28 22:24:00,
2013-04-28 15:29:00,60.4,28.6,29.97,NW,315,2.2,3.2,30,0.00,,,0.00,WUHU216TE923,2013-04-28 22:29:00,
2013-04-28 15:34:00,60.6,28.8,29.97,North,0,1.9,6.5,30,0.00,,,0.00,WUHU216TE923,2013-04-28 22:34:00,
2013-04-28 15:39:00,61.0,29.9,29.97,NE,45,1.8,6.5,31,0.00,,,0.00,WUHU216TE923,2013-04-28 22:39:00,
2013-04-28 15:44:00,60.8,29.7,29.97,ESE,113,2.1,2.4,31,0.00,,,0.00,WUHU216TE923,2013-04-28 22:44:00,
2013-04-28 15:49:00,60.6,28.8,29.97,NE,45,1.9,2.9,30,0.00,,,0.00,WUHU216TE923,2013-04-28 22:49:00,
2013-04-28 15:54:00,60.4,28.6,29.97,NE,45,1.9,2.9,30,0.00,,,0.00,WUHU216TE923,2013-04-28 22:54:00,
2013-04-28 15:59:00,60.4,28.6,29.97,SE,135,2.1,2.8,30,0.00,,,0.00,WUHU216TE923,2013-04-28 22:59:00,
2013-04-28 16:04:00,59.9,28.2,29.97,NNW,338,2.4,4.7,30,0.00,,,0.00,WUHU216TE923,2013-04-28 23:04:00,
2013-04-28 16:09:00,60.3,28.5,29.97,SE,135,1.7,4.7,30,0.00,,,0.00,WUHU216TE923,2013-04-28 23:09:00,
2013-04-28 16:14:00,60.1,28.3,29.97,SE,135,1.1,1.9,30,0.00,,,0.00,WUHU216TE923,2013-04-28 23:14:00,
2013-04-28 16:19:00,60.1,28.3,29.97,SE,135,1.0,1.9,30,0.00,,,0.00,WUHU216TE923,2013-04-28 23:19:00,
2013-04-28 16:24:00,60.1,28.3,29.96,SE,135,0.9,1.1,30,0.00,,,0.00,WUHU216TE923,2013-04-28 23:24:00,
2013-04-28 16:29:00,60.3,28.5,29.96,South,180,1.0,2.0,30,0.00,,,0.00,WUHU216TE923,2013-04-28 23:29:00,
2013-04-28 16:34:00,60.3,28.5,29.96,ESE,113,1.7,2.0,30,0.00,,,0.00,WUHU216TE923,2013-04-28 23:34:00,
2013-04-28 16:39:00,60.4,28.6,29.96,NE,45,1.5,6.1,30,0.00,,,0.00,WUHU216TE923,2013-04-28 23:39:00,
2013-04-28 16:44:00,60.4,28.6,29.95,NNE,23,2.1,7.1,30,0.00,,,0.00,WUHU216TE923,2013-04-28 23:44:00,
2013-04-28 16:49:00,60.4,28.6,29.95,North,0,3.3,7.1,30,0.00,,,0.00,WUHU216TE923,2013-04-28 23:49:00,
2013-04-28 16:54:00,60.3,28.5,29.95,NNE,23,3.4,4.9,30,0.00,,,0.00,WUHU216TE923,2013-04-28 23:54:00,
2013-04-28 16:59:00,60.4,28.6,29.95,NW,315,2.5,4.9,30,0.00,,,0.00,WUHU216TE923,2013-04-28 23:59:00,
2013-04-28 17:04:00,60.6,28.8,29.95,ENE,68,2.7,4.4,30,0.00,,,0.00,WUHU216TE923,2013-04-29 00:04:00,
2013-04-28 17:09:00,60.3,28.5,29.95,ENE,68,3.1,4.4,30,0.00,,,0.00,WUHU216TE923,2013-04-29 00:09:00,
2013-04-28 17:14:00,59.9,28.2,29.95,ESE,113,2.6,3.4,30,0.00,,,0.00,WUHU216TE923,2013-04-29 00:14:00,
2013-04-28 17:19:00,59.7,28.0,29.95,ESE,113,1.4,2.6,30,0.00,,,0.00,WUHU216TE923,2013-04-29 00:19:00,
2013-04-28 17:24:00,59.5,27.8,29.94,North,0,0.9,2.7,30,0.00,,,0.00,WUHU216TE923,2013-04-29 00:24:00,
2013-04-28 17:29:00,59.5,27.8,29.94,SE,135,0.9,2.7,30,0.00,,,0.00,WUHU216TE923,2013-04-29 00:29:00,
2013-04-28 17:34:00,59.4,27.7,29.94,NNE,23,0.7,3.0,30,0.00,,,0.00,WUHU216TE923,2013-04-29 00:34:00,
2013-04-28 17:39:00,59.2,27.6,29.94,ESE,113,0.8,3.0,30,0.00,,,0.00,WUHU216TE923,2013-04-29 00:39:00,
2013-04-28 17:44:00,58.8,27.2,29.94,NNW,338,1.8,5.7,30,0.00,,,0.00,WUHU216TE923,2013-04-29 00:44:00,
2013-04-28 17:49:00,58.8,27.2,29.94,NNE,23,2.2,5.7,30,0.00,,,0.00,WUHU216TE923,2013-04-29 00:49:00,
2013-04-28 17:54:00,58.5,26.9,29.94,North,0,2.0,3.0,30,0.00,,,0.00,WUHU216TE923,2013-04-29 00:54:00,
2013-04-28 17:59:00,58.3,26.8,29.94,ENE,68,1.5,3.0,30,0.00,,,0.00,WUHU216TE923,2013-04-29 00:59:00,
2013-04-28 18:04:00,57.9,26.4,29.95,NNE,23,2.0,3.3,30,0.00,,,0.00,WUHU216TE923,2013-04-29 01:04:00,
2013-04-28 18:09:00,57.7,26.3,29.95,NW,315,2.3,3.3,30,0.00,,,0.00,WUHU216TE923,2013-04-29 01:09:00,
2013-04-28 18:14:00,57.4,26.0,29.95,ESE,113,2.3,3.0,30,0.00,,,0.00,WUHU216TE923,2013-04-29 01:14:00,
2013-04-28 18:19:00,57.2,25.8,29.95,ESE,113,2.1,4.3,30,0.00,,,0.00,WUHU216TE923,2013-04-29 01:19:00,
2013-04-28 18:24:00,56.8,25.5,29.94,NNE,23,2.6,4.3,30,0.00,,,0.00,WUHU216TE923,2013-04-29 01:24:00,
2013-04-28 18:29:00,56.8,25.5,29.94,NNW,338,2.8,4.1,30,0.00,,,0.00,WUHU216TE923,2013-04-29 01:29:00,
2013-04-28 18:34:00,56.5,25.2,29.94,South,180,2.4,4.1,30,0.00,,,0.00,WUHU216TE923,2013-04-29 01:34:00,
2013-04-28 18:39:00,56.5,25.2,29.94,NNE,23,1.7,2.4,30,0.00,,,0.00,WUHU216TE923,2013-04-29 01:39:00,
2013-04-28 18:44:00,56.3,25.8,29.93,NNE,23,1.3,2.0,31,0.00,,,0.00,WUHU216TE923,2013-04-29 01:44:00,
2013-04-28 18:49:00,56.1,25.6,29.93,NNW,338,1.1,2.0,31,0.00,,,0.00,WUHU216TE923,2013-04-29 01:49:00,
2013-04-28 18:54:00,56.1,25.6,29.93,NNW,338,0.8,1.8,31,0.00,,,0.00,WUHU216TE923,2013-04-29 01:54:00,
2013-04-28 18:59:00,56.1,26.4,29.93,NNE,23,0.8,3.6,32,0.00,,,0.00,WUHU216TE923,2013-04-29 01:59:00,
2013-04-28 19:04:00,55.9,26.2,29.94,SE,135,1.3,3.6,32,0.00,,,0.00,WUHU216TE923,2013-04-29 02:04:00,
2013-04-28 19:09:00,55.9,27.0,29.94,ESE,113,1.7,1.9,33,0.00,,,0.00,WUHU216TE923,2013-04-29 02:09:00,
2013-04-28 19:14:00,55.8,26.9,29.94,ENE,68,1.3,1.9,33,0.00,,,0.00,WUHU216TE923,2013-04-29 02:14:00,
2013-04-28 19:19:00,55.6,26.7,29.94,East,90,1.1,1.4,33,0.00,,,0.00,WUHU216TE923,2013-04-29 02:19:00,
2013-04-28 19:24:00,55.6,26.7,29.92,ENE,68,0.4,1.3,33,0.00,,,0.00,WUHU216TE923,2013-04-29 02:24:00,
2013-04-28 19:29:00,55.4,26.5,29.92,ENE,68,0.3,1.7,33,0.00,,,0.00,WUHU216TE923,2013-04-29 02:29:00,
2013-04-28 19:34:00,55.4,27.3,29.92,ESE,113,0.2,1.7,34,0.00,,,0.00,WUHU216TE923,2013-04-29 02:34:00,
2013-04-28 19:39:00,55.0,28.3,29.92,ENE,68,0.2,0.2,36,0.00,,,0.00,WUHU216TE923,2013-04-29 02:39:00,
2013-04-28 19:44:00,54.9,28.2,29.93,ESE,113,0.0,0.2,36,0.00,,,0.00,WUHU216TE923,2013-04-29 02:44:00,
2013-04-28 19:49:00,54.7,28.0,29.93,NNE,23,0.0,0.0,36,0.00,,,0.00,WUHU216TE923,2013-04-29 02:49:00,
2013-04-28 19:54:00,54.5,28.5,29.93,SSE,158,0.0,0.0,37,0.00,,,0.00,WUHU216TE923,2013-04-29 02:54:00,
2013-04-28 19:59:00,54.5,28.5,29.93,SE,135,0.0,0.0,37,0.00,,,0.00,WUHU216TE923,2013-04-29 02:59:00,
2013-04-28 20:04:00,54.1,28.8,29.93,SE,135,0.0,0.0,38,0.00,,,0.00,WUHU216TE923,2013-04-29 03:04:00,
2013-04-28 20:09:00,54.1,28.2,29.93,SE,135,0.1,0.1,37,0.00,,,0.00,WUHU216TE923,2013-04-29 03:09:00,
2013-04-28 20:14:00,54.0,28.8,29.93,South,180,0.1,0.1,38,0.00,,,0.00,WUHU216TE923,2013-04-29 03:14:00,
2013-04-28 20:19:00,53.8,28.6,29.93,SE,135,0.0,0.1,38,0.00,,,0.00,WUHU216TE923,2013-04-29 03:19:00,
2013-04-28 20:24:00,53.4,29.5,29.93,SSE,158,0.0,0.0,40,0.00,,,0.00,WUHU216TE923,2013-04-29 03:24:00,
2013-04-28 20:29:00,53.2,29.3,29.93,SW,225,0.2,2.1,40,0.00,,,0.00,WUHU216TE923,2013-04-29 03:29:00,
2013-04-28 20:34:00,53.1,29.8,29.93,WSW,248,0.4,2.1,41,0.00,,,0.00,WUHU216TE923,2013-04-29 03:34:00,
2013-04-28 20:39:00,52.9,29.7,29.93,WSW,248,0.4,1.1,41,0.00,,,0.00,WUHU216TE923,2013-04-29 03:39:00,
2013-04-28 20:44:00,52.7,29.5,29.92,WSW,248,0.7,1.8,41,0.00,,,0.00,WUHU216TE923,2013-04-29 03:44:00,
2013-04-28 20:49:00,52.7,29.5,29.92,WSW,248,1.4,1.8,41,0.00,,,0.00,WUHU216TE923,2013-04-29 03:49:00,
2013-04-28 20:54:00,52.3,29.1,29.92,WSW,248,1.7,1.7,41,0.00,,,0.00,WUHU216TE923,2013-04-29 03:54:00,
2013-04-28 20:59:00,52.3,29.1,29.92,WSW,248,1.0,2.7,41,0.00,,,0.00,WUHU216TE923,2013-04-29 03:59:00,
2013-04-28 21:04:00,52.2,27.8,29.93,West,270,0.9,2.7,39,0.00,,,0.00,WUHU216TE923,2013-04-29 04:04:00,
2013-04-28 21:09:00,52.2,27.1,29.93,NW,315,1.4,2.8,38,0.00,,,0.00,WUHU216TE923,2013-04-29 04:09:00,
2013-04-28 21:14:00,52.0,27.0,29.93,South,180,1.8,2.8,38,0.00,,,0.00,WUHU216TE923,2013-04-29 04:14:00,
2013-04-28 21:19:00,51.8,26.8,29.93,NW,315,2.2,4.1,38,0.00,,,0.00,WUHU216TE923,2013-04-29 04:19:00,
2013-04-28 21:24:00,51.8,27.4,29.93,West,270,2.1,4.1,39,0.00,,,0.00,WUHU216TE923,2013-04-29 04:24:00,
2013-04-28 21:29:00,51.6,27.9,29.93,WSW,248,2.0,2.8,40,0.00,,,0.00,WUHU216TE923,2013-04-29 04:29:00,
2013-04-28 21:34:00,51.6,28.5,29.93,SW,225,1.8,2.8,41,0.00,,,0.00,WUHU216TE923,2013-04-29 04:34:00,
2013-04-28 21:39:00,51.4,28.9,29.93,NW,315,2.7,9.8,42,0.00,,,0.00,WUHU216TE923,2013-04-29 04:39:00,
2013-04-28 21:44:00,51.3,29.4,29.93,NNW,338,2.7,9.8,43,0.00,,,0.00,WUHU216TE923,2013-04-29 04:44:00,
2013-04-28 21:49:00,51.3,29.4,29.93,North,0,3.2,5.3,43,0.00,,,0.00,WUHU216TE923,2013-04-29 04:49:00,
2013-04-28 21:54:00,51.1,29.8,29.93,ENE,68,2.9,5.3,44,0.00,,,0.00,WUHU216TE923,2013-04-29 04:54:00,
2013-04-28 21:59:00,51.1,29.8,29.93,NNE,23,2.6,4.6,44,0.00,,,0.00,WUHU216TE923,2013-04-29 04:59:00,
2013-04-28 22:04:00,50.9,29.6,29.93,SE,135,2.9,4.6,44,0.00,,,0.00,WUHU216TE923,2013-04-29 05:04:00,
2013-04-28 22:09:00,50.9,29.6,29.93,WSW,248,3.2,5.8,44,0.00,,,0.00,WUHU216TE923,2013-04-29 05:09:00,
2013-04-28 22:14:00,50.7,30.0,29.93,WSW,248,3.7,5.8,45,0.00,,,0.00,WUHU216TE923,2013-04-29 05:14:00,
2013-04-28 22:19:00,50.7,30.6,29.93,WSW,248,4.5,7.2,46,0.00,,,0.00,WUHU216TE923,2013-04-29 05:19:00,
2013-04-28 22:24:00,50.5,29.8,29.92,SW,225,4.9,11.9,45,0.00,,,0.00,WUHU216TE923,2013-04-29 05:24:00,
2013-04-28 22:29:00,50.5,29.8,29.92,SW,225,5.1,11.9,45,0.00,,,0.00,WUHU216TE923,2013-04-29 05:29:00,
2013-04-28 22:34:00,50.4,29.7,29.92,South,180,5.8,7.5,45,0.00,,,0.00,WUHU216TE923,2013-04-29 05:34:00,
2013-04-28 22:39:00,50.4,29.7,29.92,WNW,293,6.0,8.8,45,0.00,,,0.00,WUHU216TE923,2013-04-29 05:39:00,
2013-04-28 22:44:00,50.2,29.6,29.91,West,270,6.0,12.2,45,0.00,,,0.00,WUHU216TE923,2013-04-29 05:44:00,
2013-04-28 22:49:00,50.2,29.6,29.91,West,270,5.7,12.2,45,0.00,,,0.00,WUHU216TE923,2013-04-29 05:49:00,
2013-04-28 22:54:00,50.0,29.9,29.91,South,180,5.8,7.5,46,0.00,,,0.00,WUHU216TE923,2013-04-29 05:54:00,
2013-04-28 22:59:00,50.0,29.9,29.91,WSW,248,5.7,7.3,46,0.00,,,0.00,WUHU216TE923,2013-04-29 05:59:00,
2013-04-28 23:04:00,49.8,30.3,29.92,WNW,293,5.7,9.6,47,0.00,,,0.00,WUHU216TE923,2013-04-29 06:04:00,
2013-04-28 23:09:00,49.8,30.3,29.92,SE,135,6.0,9.6,47,0.00,,,0.00,WUHU216TE923,2013-04-29 06:09:00,
2013-04-28 23:14:00,49.8,30.3,29.92,WSW,248,5.9,7.4,47,0.00,,,0.00,WUHU216TE923,2013-04-29 06:14:00,
2013-04-28 23:19:00,49.6,30.1,29.92,South,180,5.4,7.4,47,0.00,,,0.00,WUHU216TE923,2013-04-29 06:19:00,
2013-04-28 23:24:00,49.6,30.6,29.92,WSW,248,5.9,5.9,48,0.00,,,0.00,WUHU216TE923,2013-04-29 06:24:00,
2013-04-28 23:29:00,49.6,31.2,29.92,WSW,248,5.8,5.9,49,0.00,,,0.00,WUHU216TE923,2013-04-29 06:29:00,
2013-04-28 23:34:00,49.5,31.1,29.92,WSW,248,5.6,11.7,49,0.00,,,0.00,WUHU216TE923,2013-04-29 06:34:00,
2013-04-28 23:39:00,49.5,31.6,29.92,SW,225,5.6,11.7,50,0.00,,,0.00,WUHU216TE923,2013-04-29 06:39:00,
2013-04-28 23:44:00,49.5,31.6,29.91,NNW,338,5.2,6.1,50,0.00,,,0.00,WUHU216TE923,2013-04-29 06:44:00,
2013-04-28 23:49:00,49.3,32.4,29.91,NW,315,4.8,10.3,52,0.00,,,0.00,WUHU216TE923,2013-04-29 06:49:00,
2013-04-28 23:54:00,49.1,31.7,29.91,South,180,4.2,13.0,51,0.00,,,0.00,WUHU216TE923,2013-04-29 06:54:00,
2013-04-28 23:59:00,49.1,31.7,29.91,WSW,248,4.1,13.0,51,0.00,,,0.00,WUHU216TE923,2013-04-29 06:59:00,